Welcome to the New NWS' Forecast!
Most changes are behind the scenes, but click here for differences you might notice.

Regional Weather Roundup (RWR)

Issued by Gray - Portland, ME (GYX)

                            
000
ASUS41 KGYX 091810
RWRGYX
WEATHER ROUNDUP FOR MAINE AND NEW HAMPSHIRE
NATIONAL WEATHER SERVICE GRAY ME
100 PM EST SUN DEC 09 2018

MEZ002-005-006-010-012-015-018-020-021-024-026-027-029-091900-
MAINE
  
CITY           SKY/WX    TMP DP  RH WIND       PRES   REMARKS
PORTLAND       FAIR      33  13  43 W9        30.26F                  
6HR MIN TEMP:  13; 6HR MAX TEMP:  33;                                

SANFORD        FAIR      32  14  47 W13G21    30.25F                  
BAR HARBOR     FAIR      26  12  55 SW6       30.25F                  
WISCASSET      FAIR      30  10  43 VRB6      30.27F                  
6HR MIN TEMP:   5; 6HR MAX TEMP:  30;                                

ROCKLAND       FAIR      30  13  49 W9        30.25F                  
FRYEBURG       FAIR      31  13  47 VRB3      30.21F                  
6HR MIN TEMP:  -3; 6HR MAX TEMP:  31;                                

LEWISTONAUBURN FAIR      31  15  52 VRB3      30.23F                  
AUGUSTA        FAIR      28  11  48 SW7       30.22F                  
6HR MIN TEMP:   8; 6HR MAX TEMP:  29;                                

WATERVILLE     FAIR      30  14  51 MISG      30.18F                  
BANGOR         PTSUNNY   27  10  49 SW7       30.22F                  
6HR MIN TEMP:   5; 6HR MAX TEMP:  27;                                

GREENVILLE       N/A     18   8  65 S6        30.06F                  
6HR MIN TEMP:   3; 6HR MAX TEMP:  18;                                

MILLINOCKET    CLOUDY    20   6  55 CALM      30.18F                  
6HR MIN TEMP:   4; 6HR MAX TEMP:  20;                                

HOULTON        PTSUNNY   13   2  61 VRB6      30.16F                  
6HR MIN TEMP: -15; 6HR MAX TEMP:  13;                                

PRESQUE ISLE   PTSUNNY   13   2  61 S7        30.15F                  
6HR MIN TEMP: -18; 6HR MAX TEMP:  16;                                

FRENCHVILLE    CLOUDY     8  -1  66 VRB5      30.06F                  
6HR MIN TEMP:  -4; 6HR MAX TEMP:   8;                                

CARIBOU        CLOUDY     9   0  67 S8        30.12F                  
6HR MIN TEMP: -11; 6HR MAX TEMP:   9;                                

$$

NHZ002-005-008-009-011-012-014-091900-
NEW HAMPSHIRE
  
CITY           SKY/WX    TMP DP  RH WIND       PRES   REMARKS
PORTSMOUTH     MOSUNNY   34  13  41 W9        30.25F                  
ROCHESTER      FAIR      32  15  49 VRB6      30.24F                  
6HR MIN TEMP:  11; 6HR MAX TEMP:  32;                                

NASHUA         PTSUNNY   33  18  53 W9        30.29F                  
MANCHESTER     PTSUNNY   33  16  49 SW10      30.26F                  
6HR MIN TEMP:  11; 6HR MAX TEMP:  34;                                

CONCORD        FAIR      31  17  56 W12       30.25F                  
6HR MIN TEMP:   5; 6HR MAX TEMP:  33;                                

LACONIA        CLOUDY    28  16  60 SW10      30.22F WCI  19          
PLYMOUTH       CLOUDY    26  16  65 CALM      30.22F                  
BERLIN         CLOUDY    24  14  65 CALM      30.14F                  
6HR MIN TEMP:  -3; 6HR MAX TEMP:  24; 6HR PCP: TRACE;                

WHITEFIELD     CLOUDY    25  14  63 NW3       30.15F                  
6HR MIN TEMP:   1; 6HR MAX TEMP:  25;                                

JAFFREY        CLOUDY    28  19  69 W7G21     30.24F                  
6HR MIN TEMP:  10; 6HR MAX TEMP:  28;                                

KEENE          CLOUDY    31  20  63 SW8       30.27F                  
LEBANON        FAIR      29  17  61 S14       30.19F WCI  18          
6HR MIN TEMP:   7; 6HR MAX TEMP:  29;                                

MT WASHINGTON  PTSUNNY    9   3  78 W48         N/A  WCI -19          
6HR MIN TEMP:  -3; 6HR MAX TEMP:   8;                                

$$

VTZ005-007-008-091900-
VERMONT
  
CITY           SKY/WX    TMP DP  RH WIND       PRES   REMARKS
ST JOHNSBURY     N/A     22  14  71 MISG      30.16F                  
MONTPELIER     FAIR      26  17  68 S12       30.15F WCI  16          
BURLINGTON     FAIR      31  20  63 S13G26    30.17F                  
$$

MAZ007-012-024-CTZ003-RIZ002-NYZ038-NYZ072-091900-
SOUTHERN NEW ENGLAND AND NY
  
CITY           SKY/WX    TMP DP  RH WIND       PRES   REMARKS
BOSTON         FAIR      37  16  42 W13G20    30.31                   
WORCESTER      CLOUDY    29  17  61 SW17      30.26F WCI  17          
NANTUCKET      FAIR      33  15  47 W9        30.36F                  
PROVIDENCE     PTSUNNY   34  16  47 W13       30.35F                  
HARTFORD       PTSUNNY   34  18  52 SW10      30.33F                  
ALBANY         FAIR      36  19  50 S9        30.29F                  
NEW YORK CITY  PTSUNNY   36  17  46 SW9       30.37F                  
$$

ANZ081-ANZ082-ANZ150-NHZ014-MEZ023>029-091900-
COASTAL MARINE OBSERVATIONS
  
STATION/POSITION TIME  TEMP    WIND        PRES    WAVE
                       AIR SEA DIR/SP/G            HT/PER
                 (UTC) (F)     (DEG/KT/KT) (MB)    (FT/S)
MOUNT DESERT ROC 1800   30     250/ 19/ 21 1024.5F
MATINICUS ROCK   1700   30     250/ 15/ 18 1025.2F
ISLE OF SHOALS   1700   30     240/ 11/ 14 1026.0F
JEFFREYS LEDGE   1738      46                N/A     3/ 4
CASHES LEDGE BUO 1750   32 46              1025.1F   3/ 5
$$

.............KEY..............
   WCI - WIND CHILL
   TC  - TEMPERATURE IN CELSIUS
   VSB - VISIBILITY IN MILES
   HX  - HEAT INDEX
   FAIR- INDICATES FEW OR NO CLOUDS BELOW 12,000 FT, WITH NO 
         SIGNIFICANT WEATHER AND/OR OBSTRUCTIONS TO VISIBILITY.